Location: Newark
(52.3500°N, 175.9667°E)
Time: 21:39:14
(UTC+00:00)

Transit 4A - Pass Details

Date: 22 April 2021
Orbit: 871 x 974 km, 66.8° (Epoch: 16 May)

Event Time Altitude Azimuth Distance (km) Brightness Sun altitude
Rises 20:27:29 0° 317° (NW) 3,519 10.5 29.9°
Reaches altitude 10° 20:30:12 10° 309° (NW) 2,562 9.8 30.3°
Maximum altitude 20:35:28 35° 246° (WSW) 1,391 8.8 31.0°
Drops below altitude 10° 20:40:39 10° 183° (S) 2,514 10.5 31.7°
Sets 20:43:18 0° 174° (S) 3,446 11.2 32.1°
